Regional Weather Roundup
Issued by NWS Sterling, VA

Home | Current Version | Previous Version | Text Only | Print | Product List | Glossary On
Versions: 1 2 3 4 5 6 7 8 9 10 11 12 13 14 15 16 17 18 19 20 21 22 23 24 25 26 27 28 29 30 31 32 33 34 35 36 37 38 39 40 41 42 43 44 45 46 47 48 49 50
000
ASUS41 KLWX 040810
RWRLWX

REGIONAL WEATHER ROUNDUP
NATIONAL WEATHER SERVICE BALTIMORE MD/WASHINGTON DC
300 AM EST SUN DEC 04 2016

Note: "FAIR" indicates few or no clouds below 12,000 feet
with no significant weather and/or obstructions to visibility.
 TC=TEMPERATURE CELSIUS

 * =Non NWS site. Station does not report precipitation (e.g. rain,
    snow, etc.), thunder, or fog.

DCZ001-MDZ009-015-VAZ040>042-051-053>054-040900-
WASHINGTON METRO

CITY           SKY/WX    TMP DP  RH WIND       PRES   REMARKS
WASHINGTON NAT CLOUDY    40  28  62 NW13      30.29S
DULLES         CLOUDY    36  26  67 NW6       30.29R
ANDREWS AFB    PTCLDY    38  27  63 NW12      30.26S
FT BELVOIR     CLOUDY    34  27  75 CALM      30.28S
QUANTICO       CLOUDY    36  27  69 NW9       30.30S WCI  29
COLLEGE PARK*  CLOUDY    37  28  70 W6        30.28S
LEESBURG*      PTCLDY    37  32  81 NW10      30.29F
MANASSAS*      PTCLDY    28  28 100 SE3       30.29S
GAITHERSBURG*  MOCLDY    34  25  69 W3        30.32S

$$

MDZ006>007-011-014-040900-
BALTIMORE METRO

CITY           SKY/WX    TMP DP  RH WIND       PRES   REMARKS
BWI AIRPORT    MOCLDY    37  29  72 W8        30.27R
MD SCIENCE CTR   N/A     41  27  57 MISG      30.26S
ANNAPOLIS      PTCLDY    42  30  62 W5        30.27R
FORT MEADE*    CLEAR     36  28  75 W5        30.30S

$$

MDZ012-015-019>023-040900-
MARYLAND EASTERN SHORE

CITY           SKY/WX    TMP DP  RH WIND       PRES   REMARKS
OCEAN CITY     CLEAR     37  30  75 NW5       30.25S
SALISBURY      PTCLDY    37  31  78 W5        30.26R
BAY BRIDGE AP* PTCLDY    41  30  65 W13       30.27R
CAMBRIDGE*     CLOUDY    37  32  81 NW5       30.25F
EASTON*        CLOUDY    41  31  67 NW6       30.30S

$$

MDZ017>025-040900-
SOUTHERN MARYLAND

CITY           SKY/WX    TMP DP  RH WIND       PRES   REMARKS
PATUXENT RIVER CLOUDY    37  28  70 W9        30.27S
ST INIGOES     MOCLDY    39  29  67 VRB3      30.27S
LEONARDTOWN*   MOCLDY    36  28  75 W3        30.29S

$$

MDZ003>005-040900-
NORTH CENTRAL MARYLAND

CITY           SKY/WX    TMP DP  RH WIND       PRES   REMARKS
FREDERICK*     MOCLDY    37  30  75 W8        30.30F
HAGERSTOWN APT PTCLDY    37  27  67 SW5       30.26S
WESTMINSTER*   MOCLDY    36  28  75 W9        30.24S WCI  29

$$

MDZ501>502-040900-
WESTERN MARYLAND

CITY           SKY/WX    TMP DP  RH WIND       PRES   REMARKS
OAKLAND*       CLOUDY    27  23  86 CALM      30.19S
CUMBERLAND*    NOT AVBL

$$

VAZ025>031-040900-
SHENANDOAH VALLEY

CITY           SKY/WX    TMP DP  RH WIND       PRES   REMARKS
WINCHESTER*    CLOUDY    34  27  75 W6        30.28F
FRONT ROYAL*   FAIR      32  28  86 S6        30.28F
LURAY*         FAIR      30  30 100 SE3       30.29S
NEW MARKET*    FAIR      28  25  91 CALM      30.28S
STAUNTON*      MOCLDY    29  26  88 CALM      30.29S
WAYNESBORO*    FAIR      29  26  86 CALM      30.26S

$$

WVZ021-048>050-054>055-040900-
EASTERN WEST VIRGINIA PANHANDLE

CITY           SKY/WX    TMP DP  RH WIND       PRES   REMARKS
MARTINSBURG    MOCLDY    35  26  69 W9        30.27F WCI  28
PETERSBURG*    CLOUDY    30  28  92 CALM      30.31R

$$

VAZ036>039-050-040900-
CENTRAL FOOTHILLS

CITY           SKY/WX    TMP DP  RH WIND       PRES   REMARKS
CHARLOTTESVILL CLOUDY    34  27  75 CALM      30.28S
CULPEPER*      CLOUDY    36  28  71 CALM      30.29F
ORANGE*          N/A     32  28  86 CALM      30.30F
GORDONSVILLE*  FAIR      29  28  96 CALM      30.29S
WARRENTON*     FAIR      30  24  75 CALM      30.28F

$$

VAZ055>057-040900-
NORTH AND CENTRAL PIEDMONT

CITY           SKY/WX    TMP DP  RH WIND       PRES   REMARKS
FREDERICKSBRG* CLOUDY    33  30  91 W3        30.29F
STAFFORD*      PTCLDY    29  29  97 CALM      30.33F

$$

NCZ024-NYZ072-PAZ021-071-VAZ022-071-040900-
OTHER REGIONAL OBSERVATIONS

CITY           SKY/WX    TMP DP  RH WIND       PRES   REMARKS
NEW YORK CITY  CLOUDY    41  24  51 MISG      30.22R
PHILADELPHIA   MOCLDY    44  24  45 N10       30.23R
PITTSBURGH     CLOUDY    36  27  69 CALM      30.27S
ROANOKE        CLOUDY    38  27  64 CALM      30.27F
RALEIGH        CLOUDY    44  31  60 N3        30.27R

$$

ANZ530>537-040900-
MARINE OBSERVATIONS

STATION/POSITION TIME  TEMP    WIND        PRES
                       AIR SEA DIR/SP/G
                 (UTC) (F)     (DEG/KT/KT) (MB)
THOMAS PT LIGHT  0800   41 49  300/ 14/ 16   N/A
BALT KEY BRIDGE  0748   42     260/ 12/ 13 1025.0R
COVE POINT       0748   40     310/  7/ 11 1025.5R
LEWISETTA        0748   42 49  340/  7/  9 1025.0S
SOLOMONS ISLAND  0748   41 51  310/  6/  8   N/A
PINEY POINT      0748          340/ 14/ 16   N/A

$$




USA.gov is the U.S. government's official web portal to all federal, state and local government web resources and services.